Location: São Paulo
(23.5507°S, 46.6334°W)
Time: 20:05:53
(UTC-03:00)

Vanguard 2 Rocket - Pass Details

Date: 21 February 2026
Orbit: 553 x 3286 km, 32.9° (Epoch: 11 March)

Event Time Altitude Azimuth Distance (km) Brightness Sun altitude
Exits shadow 02:27:56 36° 146° (SE) 1,824 8.6 -43.8°
Drops below altitude 10° 02:35:18 10° 105° (ESE) 4,000 10.7 -42.5°
Sets 02:39:55 0° 98° (E) 5,488 11.5 -41.7°
